Back to catalog

STARLINK-4664

AliveCommunicationsVLEO
NORAD 53777·PAYLOAD·🇺🇸 United States

Launched Sep 11, 2022 from Cape Canaveral Space Force Station

Loading…

Next Passes (next 24 hours)

TLE

FreshSource: CelesTrak SupGP

Epoch: Sep 14, 2026, 14:15 UTC

1 53777C 22111E   26257.59423611  .00212580  00000+0  81099-2 0  2572
2 53777  53.1604 143.6580 0001255  92.2146 149.4456 15.26031235    16

Track STARLINK-4664 in real time with AllMySat

Download on the App Store